TimeEDT,TemperatureF,Dew PointF,Humidity,Sea Level PressureIn,VisibilityMPH,Wind Direction,Wind SpeedMPH,Gust SpeedMPH,PrecipitationIn,Events,Conditions,WindDirDegrees,DateUTC
12:54 AM,71.1,63.0,75,29.75,10.0,West,4.6,-,N/A,,Clear,280,2013-09-03 04:54:00
1:54 AM,71.1,63.0,75,29.75,10.0,West,5.8,-,N/A,,Partly Cloudy,280,2013-09-03 05:54:00
2:40 AM,69.8,62.6,78,29.77,10.0,West,5.8,-,N/A,,Mostly Cloudy,270,2013-09-03 06:40:00
2:54 AM,70.0,64.0,81,29.76,10.0,West,8.1,-,N/A,,Overcast,260,2013-09-03 06:54:00
3:54 AM,69.1,63.0,81,29.77,10.0,West,9.2,-,N/A,,Overcast,260,2013-09-03 07:54:00
4:54 AM,68.0,62.1,81,29.78,10.0,West,6.9,-,N/A,,Mostly Cloudy,270,2013-09-03 08:54:00
5:54 AM,66.9,61.0,81,29.80,10.0,WSW,5.8,-,N/A,,Mostly Cloudy,250,2013-09-03 09:54:00
6:54 AM,64.9,61.0,87,29.82,10.0,West,6.9,-,N/A,,Clear,260,2013-09-03 10:54:00
7:54 AM,66.9,61.0,81,29.83,10.0,West,6.9,-,N/A,,Clear,260,2013-09-03 11:54:00
8:54 AM,68.0,59.0,73,29.84,10.0,West,6.9,-,N/A,,Clear,260,2013-09-03 12:54:00
9:54 AM,71.1,57.9,63,29.84,10.0,Variable,5.8,-,N/A,,Mostly Cloudy,0,2013-09-03 13:54:00
10:54 AM,72.0,52.0,49,29.85,10.0,WNW,9.2,-,N/A,,Overcast,300,2013-09-03 14:54:00
11:54 AM,75.9,51.1,42,29.84,10.0,West,8.1,20.7,N/A,,Mostly Cloudy,270,2013-09-03 15:54:00
12:54 PM,73.9,50.0,43,29.84,10.0,West,12.7,-,N/A,,Overcast,280,2013-09-03 16:54:00
1:54 PM,75.9,51.1,42,29.84,10.0,West,10.4,16.1,N/A,,Overcast,280,2013-09-03 17:54:00
2:54 PM,73.9,52.0,46,29.84,10.0,WSW,11.5,-,N/A,,Overcast,250,2013-09-03 18:54:00
3:54 PM,73.9,53.1,48,29.84,10.0,WNW,11.5,-,N/A,,Overcast,290,2013-09-03 19:54:00
4:54 PM,73.0,53.1,49,29.85,10.0,West,11.5,-,N/A,,Overcast,280,2013-09-03 20:54:00
5:54 PM,72.0,54.0,53,29.86,10.0,West,9.2,-,N/A,,Overcast,280,2013-09-03 21:54:00
6:54 PM,71.1,54.0,55,29.87,10.0,West,9.2,-,N/A,,Overcast,260,2013-09-03 22:54:00
7:54 PM,70.0,54.0,57,29.89,10.0,West,6.9,-,N/A,,Overcast,280,2013-09-03 23:54:00
8:54 PM,68.0,55.0,63,29.92,10.0,West,8.1,-,N/A,,Overcast,270,2013-09-04 00:54:00
9:54 PM,64.9,55.0,70,29.94,10.0,WNW,10.4,-,N/A,,Partly Cloudy,290,2013-09-04 01:54:00
10:54 PM,64.0,55.9,75,29.95,10.0,WSW,8.1,-,N/A,,Overcast,250,2013-09-04 02:54:00
11:54 PM,64.0,55.9,75,29.95,10.0,WSW,5.8,-,N/A,,Overcast,250,2013-09-04 03:54:00